[[{"header":{"parameterUnit":"m.s-1","parameterCategory":1,"la1":30.2991,"la2":30.254,"lo1":-89.0895,"lo2":-89.0444,"dy":0.0017,"dx":0.0017,"nx":28,"ny":28,"refTime":"2024-05-15T09:00:00:Z","depth":0,"parameterNumber":2,"parameterNumberName":"U-component_of_WINDS"},"data":[0,0,0,0,0,0,0,0,0,0,0,0,0,0,0,0,0,0,0,0,0,0,0,0,0,0,0,0,0,0,0,0,0,0,0,0,0,0,0,0,0,0,0,0,0,0,0,0,0,0,0,0,0,0,0,0,0,0,1.2535,1.2535,0,1.2592,1.2592,1.2593,1.2573,1.2572,1.2571,1.2569,1.2633,1.2635,1.2638,0,0,0,0,0,0,0,0,0,0,0,0,0,1.2414,1.2416,1.2535,1.2535,1.2536,1.2592,1.2592,1.2593,1.2573,1.2572,1.257,1.2569,1.2632,1.2635,1.2639,0,0,0,0,0,0,0,0,0,0,0,0,0,1.2468,1.2417,1.2534,1.2533,1.2533,1.2592,1.2593,1.2594,1.2574,1.2572,1.257,1.2568,1.2631,1.2635,1.2639,1.2704,0,0,1.2652,1.2654,0,0,0,0,0,0,0,0,1.2465,1.2473,1.2532,1.2533,1.2533,1.2573,1.2573,1.2631,1.2574,1.2558,1.2569,1.2567,1.2615,1.262,1.2635,1.2707,1.271,1.2653,1.2655,1.2657,1.2658,0,0,0,0,0,0,0,1.2462,1.247,1.2557,1.2533,1.2534,1.2531,1.2537,1.2584,1.2597,1.256,1.2558,1.2565,1.2615,1.2631,1.2637,1.2711,1.2652,1.2656,1.2659,1.2661,1.2842,1.2845,0,0,0,0,0,0,1.2457,1.2467,1.2555,1.2559,1.2494,1.2535,1.2541,1.2563,1.2596,1.2599,1.2567,1.2564,1.2625,1.2632,1.2639,1.272,1.2657,1.2661,1.2664,1.284,1.2843,1.2845,0,0,0,0,0,0,1.2454,1.2465,1.2553,1.2513,1.2524,1.2539,1.2563,1.2565,1.2581,1.2601,1.2604,1.2581,1.2624,1.2633,1.2688,1.2722,1.2663,1.2667,1.2838,1.2841,1.2844,1.288,0,0,0,0,0,0,1.2451,1.2464,1.2487,1.2513,1.2526,1.26,1.2565,1.2567,1.2588,1.2585,1.2615,1.2619,1.2623,1.2682,1.2693,1.2726,1.267,1.2835,1.2839,1.2843,1.2876,1.2885,1.2892,0,0,0,0,0,1.2447,1.2496,1.2489,1.2499,1.2555,1.2602,1.2609,1.2612,1.2591,1.2616,1.2629,1.2618,1.2716,1.2688,1.27,1.2735,1.2833,1.2838,1.2843,1.2873,1.2883,1.2891,0,0,0,0,0,0,1.2474,1.2499,1.2491,1.255,1.2574,1.2598,1.263,1.2622,1.2653,1.265,1.2652,1.266,1.2718,1.2732,1.27,1.2802,1.2771,1.2779,1.279,1.28,1.2808,1.2804,1.2674,0,0,0,0,0,1.2486,1.2521,1.2541,1.2591,1.2603,1.2615,1.2635,1.2635,1.266,1.2671,1.2688,1.2715,1.2752,1.2777,1.2812,1.2878,1.2886,1.2909,1.2916,1.2922,1.2929,1.2969,1.298,1.2862,1.2862,1.2862,0,0,1.2513,1.2531,1.2553,1.2597,1.2615,1.2653,1.2623,1.2663,1.2692,1.2677,1.2731,1.2745,1.2776,1.2838,1.2866,1.2852,1.2964,1.2929,1.2933,1.2937,1.2975,1.2986,1.2996,1.2865,1.2865,1.2864,0,0,1.2582,1.2597,1.2642,1.2661,1.2689,1.2697,1.2708,1.2734,1.2743,1.2796,1.2787,1.2822,1.2885,1.2908,1.2928,1.3008,1.3,1.3019,1.306,1.3098,1.3107,1.3115,1.3147,1.3157,1.3026,1.3026,1.3026,0,1.2612,1.2666,1.2666,1.2708,1.2729,1.2716,1.2763,1.2782,1.2821,1.2837,1.282,1.2901,1.292,1.2989,1.3008,1.3024,1.3039,1.3016,1.3105,1.3114,1.3122,1.3151,1.3163,1.3028,1.3028,1.3028,1.3027,0,1.2704,1.2742,1.2774,1.2812,1.2836,1.288,1.2889,1.2915,1.2913,1.2923,1.298,1.3003,1.3044,1.306,1.3058,1.3129,1.312,1.3104,1.3074,1.3135,1.3163,1.3175,1.3032,1.3031,1.303,1.3029,0,0,1.279,1.2828,1.284,1.2858,1.2889,1.292,1.2965,1.3004,1.3027,1.3055,1.3094,1.3149,1.3135,1.3158,1.3159,1.3193,1.3258,1.3173,1.3174,1.319,1.3341,1.3354,1.3367,1.3252,1.3254,1.3256,1.3339,0,1.2863,1.294,1.2942,1.3014,1.3051,1.304,1.308,1.3105,1.3116,1.3151,1.3164,1.3203,1.3181,1.3195,1.3227,1.3243,1.3289,1.3237,1.3292,1.3294,1.3286,1.3381,1.3395,1.3473,1.335,1.3352,1.3353,0,1.2958,1.2988,1.3063,1.3092,1.3107,1.3143,1.318,1.3212,1.3242,1.3248,1.3274,1.3271,1.332,1.3287,1.3356,1.3321,1.3344,1.3355,1.3358,1.3365,1.3328,1.3393,1.3497,1.351,1.337,1.3369,1.3368,0,1.3017,1.3077,1.313,1.3146,1.3179,1.3205,1.322,1.3247,1.3272,1.3305,1.3321,1.336,1.3382,1.3413,1.3422,1.3397,1.3492,1.3459,1.3501,1.3501,1.3523,1.3521,1.3634,1.3534,1.3534,1.3533,1.3533,0,1.3099,1.3146,1.3157,1.319,1.3244,1.3247,1.33,1.3314,1.3339,1.3377,1.337,1.3406,1.3414,1.3453,1.346,1.3518,1.3527,1.3536,1.3537,1.3537,1.3537,1.3554,1.3549,1.3537,1.3536,1.3535,1.3535,0,1.3174,1.3183,1.3241,1.3269,1.3277,1.3315,1.334,1.3373,1.3384,1.3431,1.3443,1.3461,1.3506,1.3517,1.3571,1.3576,1.3645,1.3641,1.3635,1.3636,1.3678,1.3674,1.3807,1.3825,1.3711,1.3712,1.3713,0,1.3227,1.3263,1.3294,1.3318,1.3335,1.3374,1.3399,1.3404,1.343,1.3468,1.3497,1.3541,1.3577,1.365,1.3669,1.3711,1.3709,1.3752,1.3715,1.3715,1.3713,1.3711,1.3716,1.376,1.3761,1.3762,1.3763,0,1.3321,1.3324,1.3358,1.3396,1.3426,1.3456,1.3485,1.3505,1.3515,1.3546,1.3591,1.3619,1.3674,1.3719,1.3762,1.378,1.3775,1.3774,1.3787,1.3788,1.3784,1.3789,1.3657,1.3771,1.3771,1.377,1.3769,1.3769,1.3388,1.342,1.3448,1.3488,1.351,1.3538,1.3571,1.3586,1.3624,1.3668,1.367,1.372,1.3751,1.3808,1.3829,1.387,1.3858,1.3875,1.388,1.3884,1.3889,1.3776,1.3878,1.3878,1.3877,1.3877,1.3877,0,1.3483,1.3501,1.3537,1.3578,1.3611,1.36,1.3632,1.3661,1.3705,1.3734,1.3769,1.3823,1.3867,1.389,1.3934,1.3963,1.3962,1.3975,1.3974,1.3979,1.3897,1.3883,1.3976,1.3976,1.3976,1.3976,1.3976,1.3975,1.3537,1.3592,1.3599,1.3666,1.3684,1.3732,1.3752,1.3779,1.3802,1.3862,1.3898,1.3912,1.394,1.3987,1.4028,1.4034,1.4052,1.4067,1.4072,1.3995,1.3985,1.3975,1.3962,1.407,1.407,1.4151,1.4152,1.4152]},{"header":{"parameterUnit":"m.s-1","parameterCategory":1,"la1":30.2991,"la2":30.254,"lo1":-89.0895,"lo2":-89.0444,"dy":0.0017,"dx":0.0017,"nx":28,"ny":28,"refTime":"2024-05-15T09:00:00:Z","depth":0,"parameterNumber":3,"parameterNumberName":"V-component_of_WINDS"},"data":[0,0,0,0,0,0,0,0,0,0,0,0,0,0,0,0,0,0,0,0,0,0,0,0,0,0,0,0,0,0,0,0,0,0,0,0,0,0,0,0,0,0,0,0,0,0,0,0,0,0,0,0,0,0,0,0,0,0,-0.1852,-0.1849,0,-0.1566,-0.1563,-0.156,-0.1507,-0.151,-0.1512,-0.1514,-0.1215,-0.1205,-0.1195,0,0,0,0,0,0,0,0,0,0,0,0,0,-0.2344,-0.2335,-0.1852,-0.1848,-0.1845,-0.1567,-0.1563,-0.1559,-0.1507,-0.151,-0.1513,-0.1515,-0.1219,-0.1207,-0.1195,0,0,0,0,0,0,0,0,0,0,0,0,0,-0.2101,-0.2332,-0.1853,-0.1786,-0.1777,-0.1568,-0.1563,-0.1558,-0.1506,-0.151,-0.1513,-0.1517,-0.1223,-0.1208,-0.1193,-0.1029,0,0,-0.1146,-0.114,0,0,0,0,0,0,0,0,-0.2115,-0.2083,-0.1799,-0.179,-0.178,-0.1576,-0.1627,-0.138,-0.1506,-0.1609,-0.1514,-0.1518,-0.1332,-0.1308,-0.1247,-0.1015,-0.1002,-0.1145,-0.1136,-0.1129,-0.1125,0,0,0,0,0,0,0,-0.2132,-0.2095,-0.1739,-0.1795,-0.1783,-0.1767,-0.1736,-0.158,-0.1454,-0.16,-0.1596,-0.1563,-0.1327,-0.1262,-0.1239,-0.0997,-0.1145,-0.1132,-0.1123,-0.1117,-0.0613,-0.0609,0,0,0,0,0,0,-0.2162,-0.211,-0.1748,-0.173,-0.196,-0.1755,-0.1721,-0.1638,-0.1456,-0.1431,-0.156,-0.1562,-0.1286,-0.1257,-0.1229,-0.1022,-0.1129,-0.1115,-0.1106,-0.0617,-0.0612,-0.0607,0,0,0,0,0,0,-0.2173,-0.213,-0.1759,-0.1919,-0.187,-0.1743,-0.165,-0.163,-0.1564,-0.1426,-0.1402,-0.1516,-0.1287,-0.125,-0.1078,-0.1011,-0.1108,-0.1094,-0.0622,-0.0615,-0.061,-0.0609,0,0,0,0,0,0,-0.2187,-0.2134,-0.2073,-0.1918,-0.1862,-0.1616,-0.1646,-0.1622,-0.1539,-0.1538,-0.1378,-0.1355,-0.1287,-0.1101,-0.1063,-0.0992,-0.1083,-0.0627,-0.0619,-0.0612,-0.0614,-0.0603,-0.0594,0,0,0,0,0,-0.2205,-0.2083,-0.207,-0.2026,-0.1783,-0.1613,-0.158,-0.1507,-0.1534,-0.1469,-0.138,-0.136,-0.1025,-0.1084,-0.1041,-0.0964,-0.0631,-0.0621,-0.0612,-0.0619,-0.0605,-0.0594,0,0,0,0,0,0,-0.2231,-0.2061,-0.2045,-0.187,-0.1756,-0.1604,-0.152,-0.1495,-0.137,-0.1374,-0.1286,-0.125,-0.1083,-0.1006,-0.1075,-0.0793,-0.083,-0.0811,-0.085,-0.0835,-0.0826,-0.0846,-0.107,0,0,0,0,0,-0.2217,-0.2096,-0.1953,-0.1812,-0.1756,-0.1648,-0.1572,-0.1525,-0.1403,-0.1354,-0.1252,-0.1132,-0.0999,-0.0913,-0.0784,-0.0604,-0.0566,-0.0529,-0.0519,-0.0511,-0.0495,-0.0391,-0.0371,-0.0576,-0.0576,-0.0576,0,0,-0.2185,-0.2078,-0.2006,-0.1815,-0.1721,-0.1594,-0.1608,-0.1474,-0.1378,-0.1332,-0.1164,-0.1085,-0.0945,-0.0768,-0.0685,-0.0699,-0.043,-0.0499,-0.0494,-0.0481,-0.0379,-0.036,-0.0342,-0.0569,-0.057,-0.0571,0,0,-0.2063,-0.1971,-0.1842,-0.1749,-0.1607,-0.1536,-0.1506,-0.1357,-0.1303,-0.1133,-0.1095,-0.0979,-0.0753,-0.0654,-0.0575,-0.0414,-0.039,-0.0374,-0.0319,-0.0219,-0.0203,-0.0188,-0.0128,-0.0107,-0.0359,-0.0359,-0.0359,0,-0.2041,-0.1852,-0.1779,-0.1646,-0.1561,-0.1516,-0.1383,-0.1295,-0.1118,-0.1059,-0.1078,-0.0793,-0.0695,-0.0493,-0.0454,-0.0392,-0.0351,-0.0391,-0.0212,-0.0196,-0.0181,-0.0122,-0.01,-0.0358,-0.0358,-0.0358,-0.0358,0,-0.183,-0.1699,-0.1611,-0.1443,-0.1349,-0.1217,-0.1121,-0.1034,-0.0995,-0.0921,-0.0747,-0.0629,-0.0474,-0.0423,-0.0383,-0.0213,-0.0226,-0.023,-0.0264,-0.0161,-0.0105,-0.0082,-0.0356,-0.0357,-0.0357,-0.0357,0,0,-0.1715,-0.1508,-0.1477,-0.1399,-0.124,-0.1135,-0.1,-0.085,-0.0776,-0.0655,-0.0537,-0.0347,-0.0348,-0.0257,-0.0206,-0.0119,0.0005,-0.0131,-0.0127,-0.0108,0.0203,0.0206,0.0231,0.0021,0.0025,0.0029,0.0192,0,-0.1571,-0.1331,-0.1261,-0.1057,-0.0932,-0.0887,-0.0769,-0.0657,-0.0584,-0.0466,-0.0384,-0.025,-0.0264,-0.0208,-0.012,-0.0029,0.0069,-0.004,0.0135,0.014,0.0101,0.026,0.0264,0.0413,0.0215,0.0218,0.0221,0,-0.1371,-0.1248,-0.1033,-0.0887,-0.0833,-0.0728,-0.0583,-0.0472,-0.0343,-0.0296,-0.0195,-0.0151,-0.0005,-0.0049,0.0156,0.008,0.0155,0.0211,0.0219,0.024,0.0189,0.0289,0.0461,0.0485,0.0256,0.0254,0.0251,0,-0.1305,-0.1086,-0.0928,-0.0863,-0.069,-0.0617,-0.0541,-0.0416,-0.0329,-0.0203,-0.0145,-0.0003,0.0077,0.0187,0.027,0.0229,0.0468,0.043,0.0515,0.0513,0.0565,0.0561,0.0755,0.0609,0.0608,0.0608,0.0607,0,-0.1151,-0.102,-0.0896,-0.0798,-0.0649,-0.0569,-0.0422,-0.0344,-0.0233,-0.0117,-0.0069,0.0039,0.014,0.0262,0.0328,0.0489,0.0524,0.0568,0.0585,0.0566,0.056,0.0619,0.0612,0.0614,0.0612,0.0611,0.061,0,-0.1051,-0.0963,-0.0787,-0.0639,-0.0598,-0.0494,-0.0365,-0.0267,-0.0194,-0.0047,-0.0008,0.011,0.0257,0.0349,0.0536,0.058,0.0758,0.0769,0.0714,0.0722,0.0802,0.0795,0.1043,0.1081,0.0906,0.0907,0.0908,0,-0.0957,-0.0855,-0.0696,-0.0616,-0.054,-0.0412,-0.0323,-0.024,-0.015,0.0006,0.0086,0.0235,0.036,0.0593,0.0697,0.0841,0.0858,0.0935,0.088,0.0859,0.0863,0.0857,0.0869,0.0945,0.0946,0.0947,0.0948,0,-0.0797,-0.0759,-0.0635,-0.0495,-0.0391,-0.0277,-0.0162,-0.0098,0.0005,0.0105,0.0254,0.035,0.0541,0.069,0.0843,0.0925,0.0956,0.0964,0.0992,0.0976,0.094,0.0964,0.0742,0.0959,0.0958,0.0957,0.0957,0.0956,-0.0694,-0.0601,-0.0474,-0.0337,-0.0242,-0.0136,-0.0036,0.005,0.0176,0.0336,0.0378,0.0536,0.0665,0.0874,0.0958,0.1084,0.1074,0.1113,0.1124,0.1133,0.1136,0.0917,0.1112,0.1112,0.1112,0.1112,0.1111,0,-0.053,-0.0446,-0.0321,-0.0163,-0.0054,-0.0038,0.009,0.0181,0.0319,0.0435,0.0556,0.073,0.0875,0.0989,0.1139,0.1219,0.1237,0.1256,0.1252,0.1271,0.1135,0.1098,0.1239,0.1238,0.1238,0.1238,0.1238,0.1238,-0.0431,-0.0271,-0.0218,-0.0009,0.0074,0.0227,0.03,0.0399,0.0493,0.0684,0.0804,0.0877,0.0994,0.1153,0.1288,0.1318,0.1373,0.1389,0.1423,0.1294,0.128,0.1267,0.1232,0.1399,0.14,0.1549,0.155,0.1551]}]]